DECAYED

STARLINK-1115, 44973 (Decayed)

Orbit data source: Space-Track

STARLINK-1115, 44973 was a payload satellite owned by SpaceX/Seattle (US) in LEO that was launched on Tue, 07 Jan 2020 UTC via an FALCON 9 launch vehicle from the Air Force Eastern Test Range (AFETR). Payload-class satellites include a variety of spacecraft equipped with specific instruments for various scientific and technological missions. These include communications satellites like Starlink; space stations such as the ISS; scientific satellites like the Hubble; Earth observation satellites from companies like Planet Labs, Umbra, and HawkEye 360; GPS; miniature CubeSats for education and research; and military/defense satellites.

Not visible in the next 10 days
Identifier
44973, 2020-001BM
Orbit
Decayed
Country
Flag of USUS
Related business
Manufacturer
SpaceX/Seattle
Mission
Decayed Commercial Communications
Bus & Motor
STARLINK, Unknown motor
Mass
260 kg wet, ~248 kg dry
Launch date (UTC)
2020-01-07 (7 years ago)
Launch vehicle
FALCON 9
Launch site
Air Force Eastern Test Range (AFETR)
Object type
Payload
Rocket body
Debris
Shape & HBR
Box + 1 Pan, 10.1 m
Radar Cross Section
13.562 m², Large (>1 m²)

Expand to show TLE details & history
Last TLE update: 11 months ago

TLE from 11 months ago
0 STARLINK-1115
1 44973U 20001BM  25253.57544124  .10328723  12424-4  39425-3 0  9998
2 44973  53.0101 278.3331 0004897 235.0172 125.0417 16.43881326314891
Epoch: 2025-09-10T13:48Z
TLE epoch observation values (Epoch: 2025-09-10T13:48:38.123Z)
Latitude
0.00005°
Longitude
81.32441°
Altitude
158.263 km
Speed
7.811 km/s
True Right ascension
18h 33m 19s
True Declination
0° 00' 00"
Sunlit
Object was in full shadow at epoch
Visualization orbit readout
Latitude
Unknown
Longitude
Unknown
Altitude
Unknown
Speed
Unknown
Apparent Right ascension
Unknown
Apparent Declination
Unknown
Sunlit
N/A
Visualization observer readout
Local Sidereal Time
16:08:16
Azimuth
Unknown
Elevation
Unknown
Doppler factor
Unknown
Orbital elements
Apogee altitude
158.992 km
Perigee altitude
152.592 km
Semi-major axis
6,533.929 km
Eccentricity
0.00049
Inclination
53.0101°
RAAN
278.3331°
Arg. of periapsis
235.0172°
True anomaly
125.08763°
Mean anomaly
125.0417°
Eccentric anomaly
125.06467°
Mean motion
4.10943 °/min
Orbital period
87.6 mins
BSTAR
0.00039425
Loading maneuver chart data...
Computing Atmospheric mass density...

Documentation

Showing up to 5 results
|